TALO2: Illinois River, Tahlequah, OK

Data processed at Fri Jul 13 2018 23:33


All information presented herein is the property of the government of the United States of America and may be revised or deleted at any time without prior notice.
Dissemination of this information without the expressed written consent of the Public Affairs Office, Tulsa District U.S. Army Corps of Engineers is strictly prohibited.
These data are gathered electronically and, as presented, have not undergone any form of quality control. These data are not guaranteed to be valid or correct.
Go to home page.
Go to station list.

Upstream stations:

Downstream station:
Previous Day
Next Day
Current Day
    
SHEF ID:       TALO2     Illinois River near Tahlequah, O
STATION TYPE:  

               PRECIP PRECIP(A)     STAGE  STAGE(2)  RIV-FLOW  BAT-LOAD
                   in        in        ft        ft       cfs      volt
              Ccp-Rev   Ccp-Rev   Ccp-Rev   Ccp-Rev   Ccp-Rev   Ccp-Rev
(US/Central)
07/11 00:00      0.00      ----      5.89      5.81       296     12.57
07/11 01:00      0.00      ----      5.89      5.82       296     12.57
07/11 02:00      0.00      ----      5.88      5.81       293     12.57
07/11 03:00      0.00      ----      5.88      5.82       293     12.57
07/11 04:00      0.00      ----      5.87      5.81       289     12.57
07/11 05:00      0.00      ----      5.87      5.81       289     12.57
07/11 06:00      0.00      ----      5.87      5.81       289     12.49
07/11 07:00      0.00      ----      5.87      5.80       289     12.49
07/11 08:00      0.00      ----      5.86      5.81       285     12.57
07/11 09:00      0.00      ----      5.86      5.81       285     12.57
07/11 10:00      0.00      ----      5.86      5.81       285     13.05
07/11 11:00      0.00      ----      5.86      5.82       285     13.29
07/11 12:00      0.00      ----      5.86      5.79       285     13.29
07/11 13:00      0.00      ----      5.86      5.80       285     13.44
07/11 14:00      0.44      ----      5.84      5.76       277     13.21
07/11 15:00      0.18      ----      5.86      5.80       285     13.21
07/11 16:00      0.00      ----      5.86      5.79       285     13.05
07/11 17:00      0.00      ----      5.86      5.77       285     12.89
07/11 18:00      0.00      ----      5.86      5.77       285     12.97
07/11 19:00      0.00      ----      5.86      5.79       285     12.97
07/11 20:00      0.00      ----      5.86      5.79       285     12.81
07/11 21:00      0.00      ----      5.86      5.79       285     12.65
07/11 22:00      0.00      ----      5.86      5.78       285     12.65
07/11 23:00      0.00      ----      5.86      5.79       285     12.65